Theta_e
347 342 347 347 347 349 350 347 350 349 348 350 349 349 348 345 347 346 347 344 342 336 341 341 343 342 344 343 342 342 340 340 342 341 341 341 339 338 338 339 339 339 335
342 341 347 344 346 345 345 346 346 348 348 348 348 348 347 347 346 346 347 345 342 337 337 340 343 343 346 343 343 341 339 344 341 339 339 340 340 337 336 335 337 338 338
343 345 344 345 344 341 342 343 345 347 347 348 348 347 348 346 347 346 346 346 345 342 337 338 339 341 343 341 340 341 340 341 338 338 338 338 339 338 337 335 337 336 337
346 344 345 344 343 342 343 342 344 346 346 348 347 348 349 349 350 347 348 348 345 344 341 339 337 340 339 339 339 343 341 341 340 337 338 338 338 338 338 337 337 337 338
345 345 345 345 344 343 343 342 344 346 345 347 349 347 349 348 348 348 348 348 346 345 342 341 340 338 341 341 340 342 338 340 341 339 337 338 338 338 338 338 337 337 338
344 343 343 346 347 344 342 345 343 341 343 346 347 347 347 348 348 347 347 348 346 346 346 344 340 339 341 342 342 340 340 337 337 339 338 338 339 339 339 339 338 337 337
343 342 342 342 345 344 342 340 344 343 339 346 346 346 346 346 342 345 346 348 347 347 346 341 345 340 341 341 342 340 339 340 340 338 338 338 340 341 340 339 339 338 338
341 342 343 343 344 344 344 343 343 343 344 345 343 343 342 344 345 347 348 347 347 347 346 344 345 344 341 339 340 340 339 339 339 340 338 339 340 341 341 339 339 339 338
339 340 341 341 343 345 344 345 343 343 342 344 343 341 341 342 345 346 348 347 346 346 345 346 343 343 342 341 339 340 339 338 339 340 339 340 340 340 340 340 339 339 339
337 340 340 341 343 345 345 344 343 342 343 342 344 343 342 344 343 343 346 346 347 347 347 345 345 343 343 343 342 343 342 338 340 339 339 340 340 340 338 340 340 336 339
338 339 341 341 342 343 344 345 343 342 342 341 341 340 341 343 343 342 342 344 347 345 345 345 345 343 342 343 344 344 343 338 339 340 339 339 340 339 339 339 338 337 337
339 340 342 342 341 342 342 345 344 343 342 340 338 339 340 342 342 343 339 340 342 344 344 345 344 343 343 343 343 344 344 341 339 339 340 340 340 340 339 339 339 338 338
341 340 341 341 342 342 342 344 344 343 343 339 339 340 340 341 341 342 343 341 342 343 344 344 344 344 343 343 344 345 344 343 341 341 340 340 340 340 341 340 340 339 338
339 339 340 340 341 342 342 342 343 343 342 339 341 340 341 340 342 343 341 340 338 340 342 343 345 344 342 342 342 344 343 343 343 339 339 341 341 341 341 340 340 337 338
338 340 341 341 342 341 340 340 341 342 339 339 339 339 342 341 341 342 341 341 340 338 338 340 342 342 343 344 344 344 342 343 340 338 337 336 338 340 338 337 333 338 339
339 341 341 341 341 341 340 339 340 341 340 340 341 340 341 342 338 339 339 340 341 339 336 339 340 340 339 341 341 342 340 340 340 338 335 335 337 337 336 332 334 332 330
338 340 341 341 340 340 340 340 340 340 340 339 338 335 334 331 335 339 338 338 338 338 337 339 340 340 339 338 338 338 338 338 339 337 336 335 337 336 332 333 335 334 332
339 338 340 341 340 340 340 341 340 339 337 336 339 339 338 335 338 337 338 338 338 338 338 339 339 338 335 339 336 333 339 338 338 338 337 337 336 336 334 331 327 324 320
339 339 339 339 338 338 339 338 337 336 336 335 335 335 334 336 335 334 332 334 334 336 337 338 338 337 335 336 333 331 330 330 329 330 327 325 325 325 324 323 321 319 317
337 340 339 336 335 336 335 334 333 333 332 331 331 331 333 333 331 331 329 328 330 330 334 335 335 334 333 333 329 327 322 320 320 321 322 319 317 315 314 313 313 313 313
334 335 336 335 334 334 334 334 334 333 333 332 331 330 330 333 332 331 330 329 327 331 332 334 334 333 332 333 333 331 324 323 320 318 320 318 317 315 314 315 316 315 313
335 335 334 334 333 333 333 332 331 330 329 330 329 329 329 328 327 328 326 327 327 328 332 331 333 329 325 325 324 325 329 325 321 317 318 320 319 319 317 317 316 313 310
335 332 330 330 330 332 331 330 330 328 327 326 325 323 322 320 320 320 321 323 325 328 330 331 325 320 317 318 320 319 319 319 318 315 314 313 317 318 318 317 314 309 307
328 326 323 324 327 330 332 331 325 323 323 322 322 318 317 318 319 314 314 312 311 313 317 321 318 313 313 312 314 313 315 315 315 313 314 314 311 309 308 307 307 306 307
322 320 318 319 324 326 328 329 324 319 317 314 313 315 317 317 315 312 310 312 311 311 311 310 310 310 309 309 309 313 310 311 311 311 309 309 309 309 307 306 306 307 308
317 316 314 313 316 320 320 321 321 315 310 310 312 313 315 317 315 315 314 313 313 312 311 311 310 309 309 308 308 308 307 308 307 309 307 308 308 307 307 307 307 307 307
Wind_Speed
20 13 11 11 9 8 8 11 11 9 11 12 14 15 14 17 14 17 16 16 13 15 17 16 16 16 16 15 15 15 15 15 14 14 13 11 11 10 10 11 10 8 8
20 15 15 15 15 11 11 9 10 10 9 11 11 14 18 17 17 20 21 18 19 18 18 18 17 17 17 17 16 15 15 15 15 14 13 13 12 11 11 11 11 11 9
20 17 16 14 19 15 11 10 10 10 9 9 9 10 10 10 15 16 18 16 19 21 22 21 19 18 16 16 17 16 16 16 15 13 13 14 14 14 13 12 11 11 11
17 19 17 16 17 16 14 12 12 10 11 9 8 10 9 11 8 10 15 18 19 24 25 23 22 19 19 17 15 15 16 18 15 13 14 14 15 15 16 15 13 12 12
21 17 18 17 16 21 15 14 13 11 11 8 7 8 9 7 10 11 14 17 19 20 22 24 25 22 20 18 16 15 14 16 16 16 14 15 16 16 18 18 16 15 14
21 18 17 18 17 17 19 15 15 15 10 7 7 5 7 8 9 13 14 16 15 18 18 19 24 23 21 18 16 16 18 19 18 20 18 17 17 18 18 19 18 17 16
19 20 19 19 19 21 22 19 16 14 14 7 7 4 5 9 10 12 15 15 16 17 21 22 25 27 21 20 19 18 21 21 19 21 20 19 17 18 19 20 20 19 17
19 20 21 21 22 21 21 21 19 16 13 13 6 5 1 4 13 15 13 17 19 20 21 20 26 27 25 21 23 22 22 23 22 19 20 19 18 18 19 21 20 19 18
18 20 22 23 24 24 25 23 23 21 16 14 13 6 2 2 1 6 17 15 17 17 23 24 24 28 27 25 25 25 23 25 24 20 21 20 18 17 19 19 19 20 19
19 18 20 23 24 21 22 24 25 25 19 15 11 14 9 2 2 4 7 13 16 16 20 23 22 24 25 24 23 22 24 25 23 22 21 20 19 18 17 18 18 18 18
19 18 18 22 24 24 23 22 24 26 24 21 15 8 7 9 9 7 4 4 12 17 19 21 20 19 20 23 23 23 21 23 24 21 20 19 17 15 15 17 17 17 17
14 16 17 21 22 22 23 25 25 25 25 23 19 13 8 3 4 10 5 6 7 11 17 19 18 19 21 22 24 23 21 20 22 20 19 18 19 17 16 16 17 18 17
11 13 13 18 19 21 21 24 26 24 24 23 18 16 8 13 12 13 7 4 5 9 11 20 19 20 20 22 23 23 21 20 21 21 19 16 16 15 16 16 17 16 14
3 4 8 12 16 18 19 22 27 26 22 19 20 16 13 15 14 15 9 5 1 2 7 6 22 21 17 18 20 21 18 20 19 17 16 15 14 14 13 14 13 12 11
4 2 4 7 11 13 18 19 22 20 22 23 19 18 19 16 14 9 7 11 4 2 3 2 2 11 13 15 16 17 17 16 16 14 13 12 11 11 10 10 11 11 10
5 2 3 4 7 10 15 17 18 18 19 22 18 16 17 18 14 11 10 3 5 8 2 5 3 11 7 13 7 8 10 14 14 11 9 10 10 10 11 11 10 9 9
12 10 6 3 2 5 8 14 14 16 13 14 15 12 12 14 12 4 2 7 2 4 4 2 6 9 8 7 8 7 13 16 14 12 10 10 11 11 10 9 9 9 10
11 12 11 13 11 11 14 15 16 13 11 10 11 12 9 7 7 6 6 5 8 6 5 8 10 7 7 10 8 9 11 14 14 12 10 10 10 10 10 9 9 9 6
9 10 12 11 11 14 17 18 20 21 22 22 21 18 15 11 12 14 17 19 13 7 1 7 6 6 8 11 13 11 8 9 9 8 7 7 6 7 7 7 6 4 4
11 14 15 15 15 14 18 19 18 16 16 16 15 15 16 15 12 8 10 14 16 13 12 1 6 5 3 10 12 15 11 8 9 7 5 5 4 5 5 4 5 4 3
14 16 16 16 15 14 12 11 11 9 7 6 5 5 6 8 8 6 3 4 5 7 5 3 8 4 5 10 10 9 10 11 9 6 6 5 6 6 7 6 3 2 2
16 16 16 14 13 15 11 11 11 12 12 13 14 13 11 9 8 7 8 6 3 2 5 6 2 9 11 6 5 3 15 12 4 5 6 2 6 7 6 5 3 1 5
21 18 15 12 12 11 9 8 10 12 12 12 13 11 11 11 14 10 6 10 12 12 8 11 21 15 13 11 8 11 10 8 5 5 5 9 10 10 7 5 4 4 8
21 18 15 14 12 11 8 12 14 15 15 15 12 11 11 11 12 13 17 20 22 22 20 19 17 16 12 9 7 9 8 7 8 6 1 3 4 4 0 3 7 9 9
22 19 18 17 17 17 14 16 18 20 20 17 16 16 16 17 13 13 16 20 22 21 18 17 16 14 11 10 9 6 10 7 5 3 4 1 2 5 8 6 4 6 6
21 18 19 18 20 19 16 13 12 17 21 22 21 21 19 16 16 16 17 17 19 13 10 10 12 13 13 13 12 11 8 10 7 1 5 2 3 3 2 7 4 2 8
Wind_Direction
228 223 230 226 221 236 221 218 219 219 217 235 230 231 229 214 217 203 192 175 196 204 199 197 194 195 195 199 200 203 203 205 198 195 195 192 185 182 180 176 186 188 181
225 232 234 232 223 226 226 222 219 221 216 227 228 230 236 236 221 204 208 229 214 213 208 207 203 201 199 205 208 209 208 207 208 205 200 200 197 198 192 190 193 194 198
231 231 236 238 233 236 232 223 211 214 211 220 231 222 208 205 219 204 221 216 211 217 216 213 212 209 207 212 213 213 214 215 218 211 208 212 206 204 207 204 202 207 206
238 236 238 236 229 221 217 214 213 211 219 210 224 206 227 213 223 203 203 208 218 216 216 217 216 212 209 213 215 217 219 220 217 219 220 217 216 213 214 215 213 218 219
239 231 229 228 219 223 215 210 208 210 204 203 228 204 202 233 222 217 212 212 212 220 221 222 224 219 216 214 212 214 226 226 221 227 228 224 223 220 220 220 219 221 222
232 236 235 213 219 220 218 212 210 213 214 217 221 205 218 224 227 225 209 218 224 211 219 232 229 223 220 217 216 226 220 229 237 229 229 224 225 224 223 223 224 223 226
238 235 235 225 215 219 222 218 210 212 218 222 188 204 214 227 225 239 233 219 218 217 219 223 223 220 217 221 211 217 226 228 237 226 233 228 228 225 224 222 223 225 226
237 240 232 231 217 213 219 217 212 208 208 195 162 115 62 242 244 237 234 229 226 223 227 220 221 216 222 228 230 217 228 229 231 234 232 232 235 227 222 222 222 225 225
257 243 239 234 227 218 217 218 217 213 199 199 189 151 107 216 130 243 237 238 233 232 227 225 228 227 234 251 229 221 224 230 230 235 231 235 236 224 223 221 220 222 226
253 246 239 232 229 221 219 219 220 219 211 201 199 212 227 232 72 337 242 242 238 234 228 227 232 232 245 241 228 228 232 225 228 232 231 232 232 227 224 222 219 226 227
249 243 236 228 230 221 222 221 217 215 214 209 196 171 215 218 225 231 270 249 227 236 228 230 227 226 232 233 230 225 221 221 224 232 232 232 233 226 225 223 222 225 231
242 232 230 223 226 226 222 219 220 219 214 215 212 207 178 110 205 231 227 243 222 224 222 224 222 218 220 221 223 224 220 221 220 228 230 227 229 225 223 221 222 226 228
226 224 226 219 222 227 228 222 218 219 216 212 207 210 201 230 218 245 234 241 220 218 211 224 225 222 216 217 222 229 233 219 220 230 232 232 224 222 227 228 223 222 228
150 216 226 221 222 227 222 222 216 220 211 199 197 197 189 189 222 256 232 202 359 239 204 226 226 231 228 227 229 230 228 223 228 228 224 224 225 228 228 226 225 233 230
107 150 208 225 225 224 221 224 210 214 208 200 204 199 197 187 209 249 267 242 196 191 241 189 193 208 248 241 233 232 227 222 222 216 217 229 228 219 217 218 223 226 229
81 139 162 204 218 223 221 217 207 199 199 193 185 174 182 187 202 246 261 275 204 181 162 190 146 174 211 201 189 231 229 226 207 212 224 226 207 207 203 208 208 212 219
55 72 111 125 132 172 188 190 196 186 175 172 183 175 166 182 216 240 275 226 143 132 153 136 150 159 161 184 197 193 211 216 204 210 212 207 205 204 202 204 213 214 214
58 61 93 99 110 126 130 137 131 140 150 155 130 154 127 164 107 83 56 236 130 87 154 151 167 182 190 200 178 206 201 196 194 193 198 202 205 208 203 189 185 184 178
80 86 84 96 89 92 110 120 127 126 119 110 103 100 92 97 102 84 64 55 53 22 150 175 154 160 148 170 166 160 166 160 161 168 169 164 170 183 187 183 184 189 176
95 100 104 102 100 105 110 117 115 103 95 93 93 86 77 78 81 82 73 49 46 26 14 146 108 110 209 165 166 158 149 137 134 129 121 123 150 169 160 164 156 146 142
101 105 106 99 95 97 100 110 116 121 135 136 118 107 100 90 91 89 72 20 18 25 351 102 131 154 199 194 191 189 172 151 141 154 152 149 155 177 178 178 158 141 82
111 105 104 104 103 101 97 99 108 113 114 118 119 115 117 121 94 87 80 63 0 302 261 243 123 116 82 107 106 150 153 158 143 142 157 200 192 195 205 198 182 116 346
116 109 100 101 103 114 111 100 107 109 108 104 102 97 98 105 104 102 112 117 89 68 56 161 126 104 81 77 97 86 79 100 110 98 123 87 154 129 187 211 211 305 337
108 100 89 86 96 96 118 112 116 114 113 114 115 104 99 115 134 112 108 96 87 81 83 94 101 93 87 77 77 85 75 90 108 94 97 126 127 124 119 286 287 304 328
109 102 98 94 99 102 115 142 132 120 113 107 107 105 110 107 102 104 102 95 87 83 81 80 84 85 78 72 77 115 62 75 81 75 37 16 332 337 336 321 308 314 294
108 107 103 95 95 102 121 121 127 126 117 112 103 96 93 106 112 104 99 98 93 82 66 69 72 66 62 61 59 61 64 47 22 30 30 61 3 23 300 87 41 295 289